Find Starlink 32524

NORAD ID: 62159 Int'l Des: 2024-224 Owner: SPXS Country: US Constellation: starlink operational
LEOCIRCULAR

リアルタイム位置

3D地球を読み込み中...

Starlink 32524について

説明を読み込み中...

次回通過

Passes for default location (London). Set your location on the main map for personalized predictions.

高度履歴

Loading altitude history...

軌道要素

1 62159U 24224W 26126.25386705 .00025154 00000-0 92055-3 0 9991
2 62159 43.0021 196.4807 0001310 247.4846 112.5867 15.27577834 81086
Epoch: May 6, 2026 • Age: 22 hours

現在のステータス

高度 493.2 km
速度 7.62 km/s
衛星直下点 -37.15°S, 144.4°W
打ち上げ日 Nov 30, 2024
運用期間 1.4 years
タイプ internet

技術仕様

分類 Payload
質量 730.00 kg
乾燥質量 700.00 kg
総質量 730.00 kg
長さ 0.30 m
直径 4.10 m
スパン 29.00 m
形状 Box + pan
製造者 SPXS
バスタイプ Starlink V2M
フェーズステータス In Orbit
所有者/国 SPXS/US

Most Searched